Tiempo cada hora Cekanow

Hoy, 20 Abril, Martes

Tiempo Temperatura Precipitaciones Viento Presión Humedad
00:00 +7°C° 0 mm 2 mps 744 mmHg 72%
01:00 +7°C° 0 mm 2 mps 744 mmHg 77%
02:00 +6°C° 0 mm 2 mps 744 mmHg 79%
03:00 +6°C° 0 mm 2 mps 743 mmHg 81%
04:00 +5°C° 0 mm 2 mps 743 mmHg 84%
05:00 +6°C° 0 mm 2 mps 743 mmHg 79%
06:00 +7°C° 0 mm 2 mps 744 mmHg 74%
07:00 +9°C° 0 mm 2 mps 744 mmHg 69%
08:00 +10°C° 0 mm 2 mps 744 mmHg 62%
09:00 +12°C° 0 mm 2 mps 743 mmHg 56%
10:00 +13°C° 0 mm 3 mps 743 mmHg 49%
11:00 +14°C° 0 mm 2 mps 743 mmHg 47%
12:00 +15°C° 0 mm 2 mps 743 mmHg 45%
13:00 +15°C° 0 mm 2 mps 742 mmHg 42%
14:00 +15°C° 0 mm 2 mps 742 mmHg 44%
15:00 +15°C° 0 mm 2 mps 742 mmHg 45%
16:00 +15°C° 0 mm 2 mps 742 mmHg 46%
17:00 +14°C° 0 mm 2 mps 742 mmHg 54%
18:00 +12°C° 0 mm 2 mps 742 mmHg 61%
19:00 +11°C° 0 mm 1 mps 742 mmHg 68%
20:00 +11°C° 0 mm 1 mps 742 mmHg 71%
21:00 +10°C° 0 mm 1 mps 742 mmHg 73%
22:00 +9°C° 0 mm 1 mps 742 mmHg 76%
23:00 +9°C° 0.1 mm 1 mps 742 mmHg 79%

Mañana, 21 Abril, Miércoles

Tiempo Temperatura Precipitaciones Viento Presión Humedad
00:00 +8°C° 0.1 mm 2 mps 742 mmHg 82%
01:00 +8°C° 0.1 mm 2 mps 741 mmHg 85%
02:00 +7°C° 0.2 mm 2 mps 741 mmHg 88%
03:00 +7°C° 0.2 mm 2 mps 741 mmHg 91%
04:00 +7°C° 0.2 mm 2 mps 741 mmHg 94%
05:00 +7°C° 0.1 mm 3 mps 741 mmHg 89%
06:00 +8°C° 0.1 mm 3 mps 741 mmHg 85%
07:00 +8°C° 0.1 mm 4 mps 741 mmHg 81%
08:00 +11°C° 0.1 mm 4 mps 741 mmHg 72%
09:00 +12°C° 0.1 mm 5 mps 741 mmHg 64%
10:00 +14°C° 0.1 mm 5 mps 741 mmHg 56%
11:00 +14°C° 0 mm 6 mps 741 mmHg 52%
12:00 +15°C° 0 mm 6 mps 741 mmHg 48%
13:00 +15°C° 0 mm 6 mps 740 mmHg 44%
14:00 +15°C° 0 mm 6 mps 740 mmHg 46%
15:00 +15°C° 0 mm 5 mps 740 mmHg 48%
16:00 +14°C° 0 mm 4 mps 740 mmHg 50%
17:00 +13°C° 0 mm 4 mps 740 mmHg 54%
18:00 +12°C° 0 mm 3 mps 740 mmHg 58%
19:00 +12°C° 0 mm 2 mps 740 mmHg 63%
20:00 +10°C° 0 mm 2 mps 740 mmHg 63%
21:00 +10°C° 0 mm 2 mps 741 mmHg 62%
22:00 +9°C° 0 mm 2 mps 741 mmHg 62%
23:00 +9°C° 0 mm 3 mps 741 mmHg 65%

Pasado mañana, 22 Abril, Jueves

Tiempo Temperatura Precipitaciones Viento Presión Humedad
00:00 +8°C° 0 mm 3 mps 740 mmHg 68%
01:00 +6°C° 0 mm 4 mps 740 mmHg 71%
02:00 +7°C° 0 mm 3 mps 741 mmHg 79%
03:00 +5°C° 0 mm 3 mps 741 mmHg 87%
04:00 +4°C° 0 mm 3 mps 741 mmHg 95%
05:00 +4°C° 0.2 mm 3 mps 742 mmHg 91%
06:00 +4°C° 0.2 mm 4 mps 742 mmHg 87%
07:00 +3°C° 0.2 mm 5 mps 743 mmHg 82%
08:00 +3°C° 0.1 mm 5 mps 743 mmHg 73%
09:00 +4°C° 0.1 mm 6 mps 743 mmHg 63%
10:00 +5°C° 0.1 mm 6 mps 743 mmHg 53%
11:00 +5°C° 0 mm 6 mps 743 mmHg 48%
12:00 +7°C° 0 mm 6 mps 743 mmHg 44%
13:00 +8°C° 0 mm 7 mps 743 mmHg 40%
14:00 +8°C° 0 mm 7 mps 743 mmHg 43%
15:00 +6°C° 0 mm 7 mps 743 mmHg 47%
16:00 +6°C° 0 mm 7 mps 744 mmHg 51%
17:00 +5°C° 0 mm 6 mps 744 mmHg 56%
18:00 +3°C° 0 mm 5 mps 744 mmHg 61%
19:00 +3°C° 0 mm 4 mps 744 mmHg 66%
20:00 +3°C° 0 mm 4 mps 745 mmHg 71%
21:00 +1°C° 0 mm 4 mps 745 mmHg 76%
22:00 +1°C° 0 mm 4 mps 745 mmHg 81%
23:00 0°C° 0 mm 4 mps 745 mmHg 81%

23 Abril, Viernes

Tiempo Temperatura Precipitaciones Viento Presión Humedad
00:00 0°C° 0 mm 4 mps 745 mmHg 81%
01:00 -1°C° 0 mm 4 mps 745 mmHg 81%
02:00 -1°C° 0 mm 4 mps 745 mmHg 81%
03:00 -1°C° 0 mm 4 mps 745 mmHg 81%
04:00 -1°C° 0 mm 4 mps 746 mmHg 81%
05:00 0°C° 0 mm 5 mps 746 mmHg 77%
06:00 +1°C° 0 mm 5 mps 746 mmHg 74%
07:00 +2°C° 0 mm 5 mps 746 mmHg 70%
08:00 +3°C° 0.1 mm 6 mps 746 mmHg 64%
09:00 +4°C° 0.1 mm 6 mps 746 mmHg 57%
10:00 +6°C° 0.1 mm 7 mps 746 mmHg 50%
11:00 +5°C° 0.5 mm 7 mps 746 mmHg 56%
12:00 +5°C° 0.5 mm 8 mps 746 mmHg 61%
13:00 +5°C° 0.5 mm 9 mps 746 mmHg 66%
14:00 +4°C° 0.3 mm 8 mps 746 mmHg 71%
15:00 +2°C° 0.3 mm 8 mps 746 mmHg 77%
16:00 +2°C° 0.3 mm 7 mps 747 mmHg 82%
17:00 +2°C° 0.1 mm 6 mps 747 mmHg 81%
18:00 +1°C° 0.1 mm 5 mps 747 mmHg 79%
19:00 +1°C° 0.1 mm 4 mps 748 mmHg 78%
20:00 0°C° 0 mm 4 mps 748 mmHg 79%
21:00 0°C° 0 mm 3 mps 748 mmHg 79%
22:00 0°C° 0 mm 3 mps 749 mmHg 80%
23:00 -1°C° 0 mm 3 mps 749 mmHg 79%

24 Abril, Sábado

Tiempo Temperatura Precipitaciones Viento Presión Humedad
00:00 -1°C° 0 mm 3 mps 749 mmHg 79%
01:00 -2°C° 0 mm 3 mps 749 mmHg 78%
02:00 -2°C° 0 mm 3 mps 749 mmHg 77%
03:00 -2°C° 0 mm 3 mps 749 mmHg 77%
04:00 -3°C° 0 mm 4 mps 749 mmHg 76%
05:00 -2°C° 0 mm 4 mps 749 mmHg 72%
06:00 0°C° 0 mm 4 mps 748 mmHg 67%
07:00 +2°C° 0 mm 5 mps 748 mmHg 63%
08:00 +3°C° 0 mm 5 mps 748 mmHg 57%
09:00 +6°C° 0 mm 5 mps 748 mmHg 52%
10:00 +7°C° 0 mm 6 mps 748 mmHg 47%
11:00 +7°C° 0.2 mm 6 mps 747 mmHg 54%
12:00 +6°C° 0.2 mm 7 mps 747 mmHg 61%
13:00 +6°C° 0.2 mm 7 mps 747 mmHg 68%
14:00 +5°C° 0.1 mm 7 mps 747 mmHg 67%
15:00 +5°C° 0.1 mm 7 mps 746 mmHg 65%
16:00 +5°C° 0.1 mm 6 mps 746 mmHg 64%
17:00 +4°C° 0 mm 6 mps 746 mmHg 69%
18:00 +3°C° 0 mm 5 mps 746 mmHg 74%
19:00 +3°C° 0 mm 4 mps 747 mmHg 80%
20:00 +1°C° 0 mm 4 mps 747 mmHg 83%
21:00 +2°C° 0 mm 3 mps 747 mmHg 86%
22:00 +1°C° 0 mm 3 mps 747 mmHg 89%
23:00 +1°C° 0 mm 3 mps 747 mmHg 91%

25 Abril, Domingo

Tiempo Temperatura Precipitaciones Viento Presión Humedad
00:00 0°C° 0 mm 3 mps 747 mmHg 92%
01:00 +1°C° 0 mm 2 mps 746 mmHg 94%
02:00 0°C° 0 mm 3 mps 746 mmHg 94%
03:00 0°C° 0 mm 3 mps 746 mmHg 93%
04:00 0°C° 0 mm 3 mps 746 mmHg 93%
05:00 0°C° 0 mm 4 mps 746 mmHg 85%
06:00 +1°C° 0 mm 4 mps 746 mmHg 76%
07:00 +1°C° 0 mm 5 mps 746 mmHg 68%
08:00 +3°C° 0 mm 5 mps 746 mmHg 58%
09:00 +4°C° 0 mm 6 mps 746 mmHg 49%
10:00 +5°C° 0 mm 7 mps 746 mmHg 39%
11:00 +5°C° 0 mm 7 mps 746 mmHg 41%
12:00 +5°C° 0 mm 7 mps 746 mmHg 43%
13:00 +6°C° 0 mm 7 mps 746 mmHg 44%
14:00 +5°C° 0.1 mm 7 mps 746 mmHg 46%
15:00 +5°C° 0.1 mm 7 mps 745 mmHg 48%
16:00 +5°C° 0.1 mm 7 mps 745 mmHg 50%
17:00 +4°C° 0.1 mm 6 mps 745 mmHg 56%
18:00 +3°C° 0.1 mm 5 mps 745 mmHg 62%
19:00 +3°C° 0.1 mm 3 mps 745 mmHg 68%
20:00 +2°C° 0 mm 3 mps 745 mmHg 73%
21:00 +1°C° 0 mm 3 mps 746 mmHg 77%
22:00 +1°C° 0 mm 2 mps 746 mmHg 82%
23:00 +1°C° 0 mm 2 mps 745 mmHg 83%
Mostrar más

Necesitamos Su Consentimiento

Meteoprog y nuestros Proveedores de Servicios pueden almacenar y acceder a sus datos personales como cookies, identificadores de dispositivo u otras tecnologías similares de su dispositivo y procesar dichos datos para personalizar contenido y anuncios, además de ofrecer funciones de redes sociales y analizar el tráfico.

  • Almacenar y/o acceder a información en su dispositivo

    Se puede almacenar o acceder a cookies, identificadores de dispositivo u otra información de su dispositivo para los fines anteriormente indicados.

  • Anuncios y contenido personalizados, medición de anuncios y contenido, percepciones del público, y desarrollo de productos

    Los anuncios y el contenido pueden personalizarse en base a su perfil. Se pueden añadir más datos para personalizar mejor los anuncios y contenidos. Se puede medir el rendimiento de los anuncios y contenidos. Se puede obtener la percepción sobre el público que ha visto los anuncios y contenidos. Dichos datos pueden usarse para desarrollar o mejorar la experiencia del usuario, sistemas y software.

Al hacer clic en ‘Estoy De Acuerdo’ usted permitirá el uso de las cookies, identificadores de dispositivo, balizas web u otras tecnologías similares indicadas. Su configuración puede cambiarse desde el navegador de su dispositivo.

Para ciertos fines, los intereses legítimos pueden ser considerados por encima del consentimiento. Puede leer más sobre ello en nuestra Política de Privacidad y Cookies.